Flag for Italy

Past Weather in Mantua, Italy — Yesterday and Last 2 Weeks

Now
68 °F

Clear.


Feels Like: 68 °F
Forecast: 81 / 63 °F
Wind: 5 mph from Northeast

Location: Verona / Villafranca

Current Time: Jul 12, 2020 at 11:39:35 pm

Latest Report: Jul 12, 2020 at 10:50 pm


Visibility: 10 mi

Pressure: 30.15 "Hg

Humidity: 60%

Dew Point: 54 °F

Location of MantuaLocation

Past Weather in Mantua — Graph

°F

Mantua Temperature Yesterday

Maximum temperature yesterday: 88 °F (at 2:50 pm)
Minimum temperature yesterday: 66 °F (at 5:20 pm)
Average temperature yesterday: 76 °F

High & Low Weather Summary for the Past Weeks

 TemperatureHumidityPressure
High91 °F (Jul 10, 4:20 pm)100% (Jul 2, 8:20 am)30.15 "Hg (Jul 2, 8:20 am)
Low59 °F (Jul 8, 4:20 am)34% (Jul 7, 5:20 pm)29.68 "Hg (Jul 6, 8:20 pm)
Average77 °F63%29.94 "Hg
* Reported Jun 27 10:20 pm — Jul 12 10:20 pm, Mantua. Weather by CustomWeather, © 2020

Note: Actual official high and low records may vary slightly from our data, if they occured in-between our weather recording intervals... More about our weather records

Mantua Weather History for the Previous 24 Hours

Scroll right to see more
 ConditionsComfort  
Time TempWeatherWind HumidityBarometerVisibility
10:20 pm
Sun, Jul 12
70 °FClear.5 mph57%30.15 "Hg10 mi
9:50 pm72 °FClear.5 mph50%30.15 "Hg10 mi
9:20 pm72 °FClear.5 mph50%30.15 "Hg10 mi
8:50 pm73 °FSunny.6 mph47%30.12 "Hg10 mi
8:20 pm75 °FPassing clouds.7 mph44%30.12 "HgN/A
7:50 pm77 °FPassing clouds.8 mph42%30.12 "HgN/A
7:20 pm79 °FSunny.8 mph42%30.12 "Hg10 mi
6:50 pm79 °FPassing clouds.9 mph42%30.12 "HgN/A
6:20 pm79 °FPassing clouds.8 mph42%30.12 "HgN/A
5:50 pm81 °FPassing clouds.8 mph39%30.12 "HgN/A
5:20 pm81 °FPassing clouds.7 mph39%30.12 "HgN/A
4:50 pm81 °FPassing clouds.8 mph39%30.12 "HgN/A
4:20 pm81 °FPassing clouds.7 mph42%30.12 "HgN/A
3:20 pm81 °FPassing clouds.5 mph42%30.12 "HgN/A
2:50 pm81 °FPassing clouds.5 mph45%30.15 "HgN/A
2:20 pm79 °FPassing clouds.7 mph51%30.15 "HgN/A
1:50 pm79 °FPassing clouds.7 mph48%30.15 "HgN/A
1:20 pm77 °FPassing clouds.8 mph51%30.15 "HgN/A
12:50 pm77 °FPassing clouds.8 mph47%30.15 "HgN/A
12:20 pm77 °FPassing clouds.10 mph44%30.15 "HgN/A
11:50 am77 °FPassing clouds.9 mph51%30.15 "HgN/A
11:20 am75 °FPassing clouds.13 mph50%30.15 "HgN/A
10:50 am75 °FPassing clouds.8 mph54%30.15 "HgN/A
10:20 am75 °FPassing clouds.9 mph54%30.15 "HgN/A
9:50 am73 °FPassing clouds.9 mph53%30.15 "HgN/A
9:20 am73 °FPassing clouds.8 mph57%30.15 "HgN/A
8:50 am72 °FPassing clouds.7 mph61%30.15 "HgN/A
8:20 am70 °FPassing clouds.3 mph69%30.15 "HgN/A
7:50 am68 °FPassing clouds.3 mph73%30.12 "HgN/A
7:20 am66 °FSunny.5 mph83%30.12 "Hg10 mi
6:50 am63 °FMild.5 mph94%30.12 "HgN/A
6:20 am61 °FCool.6 mph94%30.09 "HgN/A
5:50 am61 °FCool.3 mph94%30.09 "HgN/A
5:20 am61 °FCool.2 mph94%30.09 "HgN/A
4:50 am63 °FMild.2 mph88%30.09 "HgN/A
4:20 am61 °FCool.2 mph94%30.07 "HgN/A
3:50 am61 °FCool.2 mph94%30.07 "HgN/A
3:20 am63 °FMild.1 mph88%30.07 "HgN/A
2:50 am63 °FMild.5 mph88%30.07 "HgN/A
1:50 am66 °FMild.2 mph78%30.07 "HgN/A
1:20 am68 °FMild.5 mph73%30.07 "HgN/A
12:50 am68 °FMild.6 mph78%30.07 "HgN/A
12:20 am68 °FMild.5 mph83%30.07 "HgN/A
11:50 pm
Sat, Jul 11
68 °FMild.6 mph88%30.07 "HgN/A
11:20 pm68 °FMild.5 mph88%30.07 "HgN/A
Weather by CustomWeather, © 2020

See weather overview